Regional Weather Roundup
Issued by NWS Huntsville, AL

Current Version | Previous Version | Text Only | Print | Product List | Glossary On
Versions: 1 2 3 4 5 6 7 8 9 10 11 12 13 14 15 16 17 18 19 20 21 22 23 24 25 26 27 28 29 30 31 32 33 34 35 36 37 38 39 40 41 42 43 44 45 46 47 48 49 50
000
ASUS44 KHUN 272110
RWRHUN

WEATHER ROUNDUP FOR THE TENNESSEE VALLEY
NATIONAL WEATHER SERVICE HUNTSVILLE AL
400 PM CDT TUE SEP 27 2016

ALZ001>004-272200-
NORTHWEST ALABAMA

CITY           SKY/WX    TMP DP  RH WIND       PRES   REMARKS
COURTLAND HCN    N/A     82 N/A N/A NW6         N/A
RUSSELLVILLE     N/A     82 N/A N/A MISG        N/A
SHOALS AIRPORT SUNNY     85  42  22 VRB7      29.94F
SHOALS TVA RES   N/A     82 N/A N/A MISG        N/A
$$

ALZ005>007-016-272200-
NORTH CENTRAL ALABAMA

CITY           SKY/WX    TMP DP  RH WIND       PRES   REMARKS
CULLMAN AG STN   N/A     82 N/A N/A CALM        N/A
DECATUR AP     SUNNY     84  48  28 W12       29.92F
HUNTSVILLE AP  MOSUNNY   87  45  23 VRB7      29.91F
MERIDIANVILLE  SUNNY     81  30  16 CALM      29.92F
REDSTONE ARSN  SUNNY     85  47  26 W8        29.90F
VINEMONT AP    FAIR      85  56  37 N7        29.94F
$$

ALZ008>010-272200-
NORTHEAST ALABAMA

CITY           SKY/WX    TMP DP  RH WIND       PRES   REMARKS
ALBERTVILLE    MOSUNNY   82  70  65 W3        29.90F
FORT PAYNE     MOSUNNY   82  61  47 W5        29.89F
SCOTTSBORO AP  MOSUNNY   84  59  42 SW7       29.89F
SCOTTSBORO HCN   N/A     84 N/A N/A MISG        N/A
VALLEY HEAD      N/A     82 N/A N/A MISG        N/A
$$

TNZ076-096-097-272200-
SOUTHEASTERN MIDDLE TENNESSEE

CITY           SKY/WX    TMP DP  RH WIND       PRES   REMARKS
TULLAHOMA      PTSUNNY   77  39  25 N7        29.95F
WINCHESTER     PTSUNNY   81  45  28 W5        29.93F
$$

...SURROUNDING SITES...

CITY           SKY/WX    TMP DP  RH WIND       PRES   REMARKS
ATLANTA        PTSUNNY   88  64  44 SW9       29.88F
ANNISTON       MOSUNNY   90  62  39 W14       29.87F HX  90
BIRMINGHAM     PTSUNNY   87  65  47 NW12      29.91F
CHATTANOOGA    MOSUNNY   83  64  52 W7        29.89F
CORINTH        FAIR      81  36  19 VRB5      29.94F
DALTON         MOSUNNY   81  66  61 CALM      29.89F
GADSDEN        MOSUNNY   87  68  52 W13G18    29.89F HX  90
GOLDEN TRNGL   SUNNY     88  52  29 N7        29.92F
HALEYVILLE     FAIR      84  51  31 NW9       29.94F
JACKSON TN     SUNNY    N/A N/A N/A N7        29.96F
MEMPHIS        MOSUNNY   81  36  19 NW7       29.96F
NASHVILLE      SUNNY     78  40  25 VRB5      29.95F
OXFORD MS      FAIR      81  39  22 NW8       29.97F
ROME           MOSUNNY   85  67  54 SE3       29.87F
SAVANNAH       SUNNY     79  39  24 N6G14     29.94F
TUPELO         SUNNY     84  40  21 NW9       29.93F
TUSCALOOSA     SUNNY     85  65  51 NW5       29.89F
$$

...GULF COAST WEATHER...

CITY           SKY/WX    TMP DP  RH WIND       PRES   REMARKS
GULFPORT       CLOUDY    85  75  72 SW7       29.89F HX  93
PASCAGOULA     PTSUNNY   84  74  71 S6        29.89F HX  91
MOBILE         CLOUDY    86  71  60 W5        29.90F HX  91
GULF SHORES    MOCLDY    82  75  77 S5        29.89F
PENSACOLA      TSTM      80  73  79 SW6       29.90S
DESTIN         CLOUDY    86  73  65 S5        29.90F HX  93
PANAMA CITY    SUNNY     85  72  64 SW10      29.90F HX  92
APPALACHICOLA  CLOUDY    85  73  67 W9        29.89F HX  91
$$




USA.gov is the U.S. government's official web portal to all federal, state and local government web resources and services.